Location: Couloutre
(47.4081°N, 3.2259°E)
Time: 19:21:47
(UTC+00:00)

Cosmos 2026 Rocket - Pass Details

Date: 27 February 2020
Orbit: 938 x 1002 km, 82.9° (Epoch: 05 April)

Event Time Altitude Azimuth Distance (km) Brightness Sun altitude
Rises 19:47:47 0° 351° (N) 3,669 7.3 -24.2°
Reaches altitude 10° 19:50:19 10° 352° (N) 2,709 6.6 -24.6°
Maximum altitude 19:56:32 83° 82° (E) 965 3.8 -25.6°
Enters shadow 19:58:23 48° 163° (SSE) 1,224 4.2 -25.9°
